Time,TemperatureF,DewpointF,PressureIn,WindDirection,WindDirectionDegrees,WindSpeedMPH,WindSpeedGustMPH,Humidity,HourlyPrecipIn,Conditions,Clouds,dailyrainin,SoftwareType,DateUTC
2013-01-09 00:08:00,46.1,45.0,30.26,NW,326,2.0,2.0,95,0.08,,,0.14,weatherlink.com 1.10,2013-01-09 06:08:00,
2013-01-09 00:23:00,46.1,45.0,30.25,NW,326,0.0,2.0,96,0.08,,,0.14,weatherlink.com 1.10,2013-01-09 06:23:00,
2013-01-09 00:38:00,46.0,45.0,30.25,ESE,105,1.0,3.0,96,0.06,,,0.14,weatherlink.com 1.10,2013-01-09 06:38:00,
2013-01-09 00:53:00,46.0,45.0,30.26,North,5,5.0,6.0,96,0.02,,,0.14,weatherlink.com 1.10,2013-01-09 06:53:00,
2013-01-09 01:08:00,46.0,45.0,30.25,East,86,2.0,6.0,96,0.00,,,0.14,weatherlink.com 1.10,2013-01-09 07:08:00,
2013-01-09 01:23:00,45.9,45.0,30.26,East,86,1.0,3.0,96,0.00,,,0.14,weatherlink.com 1.10,2013-01-09 07:23:00,
2013-01-09 01:38:00,45.9,45.0,30.26,East,85,0.0,3.0,96,0.00,,,0.14,weatherlink.com 1.10,2013-01-09 07:38:00,
2013-01-09 01:53:00,45.9,45.0,30.25,East,85,0.0,2.0,96,0.01,,,0.15,weatherlink.com 1.10,2013-01-09 07:53:00,
2013-01-09 02:08:00,46.0,45.0,30.26,North,360,2.0,5.0,96,0.01,,,0.15,weatherlink.com 1.10,2013-01-09 08:08:00,
2013-01-09 02:23:00,46.0,45.0,30.26,NNE,12,5.0,8.0,96,0.01,,,0.15,weatherlink.com 1.10,2013-01-09 08:23:00,
2013-01-09 02:38:00,46.1,45.0,30.26,NNE,32,5.0,6.0,96,0.01,,,0.15,weatherlink.com 1.10,2013-01-09 08:38:00,
2013-01-09 02:53:00,46.3,45.0,30.27,North,9,5.0,8.0,96,0.00,,,0.15,weatherlink.com 1.10,2013-01-09 08:53:00,
2013-01-09 03:08:00,46.4,45.0,30.26,NNE,16,4.0,9.0,96,0.00,,,0.15,weatherlink.com 1.10,2013-01-09 09:08:00,
2013-01-09 03:23:00,46.5,46.0,30.26,North,5,8.0,10.0,96,0.00,,,0.15,weatherlink.com 1.10,2013-01-09 09:23:00,
2013-01-09 03:38:00,46.6,46.0,30.25,NE,41,4.0,8.0,96,0.00,,,0.15,weatherlink.com 1.10,2013-01-09 09:38:00,
2013-01-09 03:53:00,46.8,46.0,30.26,NE,49,1.0,8.0,96,0.00,,,0.15,weatherlink.com 1.10,2013-01-09 09:53:00,
2013-01-09 04:08:00,46.8,46.0,30.26,North,5,4.0,7.0,96,0.00,,,0.15,weatherlink.com 1.10,2013-01-09 10:08:00,
2013-01-09 04:23:00,46.9,46.0,30.27,NE,40,3.0,4.0,96,0.00,,,0.15,weatherlink.com 1.10,2013-01-09 10:23:00,
2013-01-09 04:39:00,46.9,46.0,30.27,North,11,2.0,6.0,96,0.00,,,0.15,weatherlink.com 1.10,2013-01-09 10:39:00,
2013-01-09 04:54:00,46.9,46.0,30.27,North,360,7.0,8.0,96,0.00,,,0.15,weatherlink.com 1.10,2013-01-09 10:54:00,
2013-01-09 05:09:00,46.9,46.0,30.27,North,360,3.0,7.0,96,0.00,,,0.15,weatherlink.com 1.10,2013-01-09 11:09:00,
2013-01-09 05:24:00,46.9,46.0,30.27,North,10,3.0,7.0,96,0.00,,,0.15,weatherlink.com 1.10,2013-01-09 11:24:00,
2013-01-09 05:39:00,46.9,46.0,30.27,NNE,16,2.0,8.0,96,0.00,,,0.15,weatherlink.com 1.10,2013-01-09 11:39:00,
2013-01-09 05:54:00,47.0,46.0,30.28,NE,48,2.0,5.0,96,0.00,,,0.15,weatherlink.com 1.10,2013-01-09 11:54:00,
2013-01-09 06:09:00,46.9,46.0,30.28,NE,53,3.0,6.0,96,0.00,,,0.15,weatherlink.com 1.10,2013-01-09 12:09:00,
2013-01-09 06:24:00,46.9,46.0,30.29,NE,56,2.0,4.0,96,0.00,,,0.15,weatherlink.com 1.10,2013-01-09 12:24:00,
2013-01-09 06:39:00,47.1,46.0,30.31,NE,55,0.0,2.0,96,0.00,,,0.15,weatherlink.com 1.10,2013-01-09 12:39:00,
2013-01-09 06:54:00,47.2,46.0,30.32,NE,54,1.0,3.0,96,0.00,,,0.15,weatherlink.com 1.10,2013-01-09 12:54:00,
2013-01-09 07:09:00,47.2,46.0,30.32,NE,53,3.0,5.0,96,0.00,,,0.15,weatherlink.com 1.10,2013-01-09 13:09:00,
2013-01-09 07:24:00,47.3,46.0,30.33,NE,35,2.0,4.0,96,0.00,,,0.15,weatherlink.com 1.10,2013-01-09 13:24:00,
2013-01-09 07:39:00,47.4,46.0,30.34,North,350,2.0,5.0,96,0.00,,,0.15,weatherlink.com 1.10,2013-01-09 13:39:00,
2013-01-09 07:54:00,47.4,46.0,30.34,North,5,5.0,7.0,96,0.00,,,0.15,weatherlink.com 1.10,2013-01-09 13:54:00,
2013-01-09 08:09:00,47.3,46.0,30.34,North,9,1.0,6.0,96,0.00,,,0.15,weatherlink.com 1.10,2013-01-09 14:09:00,
2013-01-09 08:24:00,47.4,46.0,30.35,NE,53,4.0,7.0,96,0.00,,,0.15,weatherlink.com 1.10,2013-01-09 14:24:00,
2013-01-09 08:39:00,47.5,47.0,30.35,NNE,31,2.0,6.0,96,0.00,,,0.15,weatherlink.com 1.10,2013-01-09 14:39:00,
2013-01-09 08:54:00,47.6,47.0,30.36,NNE,26,6.0,6.0,96,0.00,,,0.15,weatherlink.com 1.10,2013-01-09 14:54:00,
2013-01-09 09:09:00,48.0,47.0,30.36,North,9,3.0,7.0,95,0.00,,,0.15,weatherlink.com 1.10,2013-01-09 15:09:00,
2013-01-09 09:24:00,48.1,47.0,30.36,North,360,3.0,7.0,95,0.00,,,0.15,weatherlink.com 1.10,2013-01-09 15:24:00,
2013-01-09 09:39:00,47.9,47.0,30.36,North,10,3.0,7.0,95,0.00,,,0.15,weatherlink.com 1.10,2013-01-09 15:39:00,
2013-01-09 09:54:00,48.2,47.0,30.36,NNW,345,2.0,7.0,95,0.00,,,0.15,weatherlink.com 1.10,2013-01-09 15:54:00,
2013-01-09 10:09:00,48.4,47.0,30.36,NE,53,4.0,7.0,94,0.00,,,0.15,weatherlink.com 1.10,2013-01-09 16:09:00,
2013-01-09 10:24:00,48.6,47.0,30.37,NNE,15,3.0,8.0,93,0.00,,,0.15,weatherlink.com 1.10,2013-01-09 16:24:00,
2013-01-09 10:39:00,49.0,47.0,30.37,North,360,2.0,7.0,93,0.00,,,0.15,weatherlink.com 1.10,2013-01-09 16:39:00,
2013-01-09 10:54:00,49.4,48.0,30.37,North,355,2.0,6.0,93,0.00,,,0.15,weatherlink.com 1.10,2013-01-09 16:54:00,
2013-01-09 11:09:00,49.8,48.0,30.37,North,355,4.0,8.0,92,0.00,,,0.15,weatherlink.com 1.10,2013-01-09 17:09:00,
2013-01-09 11:24:00,50.8,48.0,30.36,NNE,29,3.0,7.0,90,0.00,,,0.15,weatherlink.com 1.10,2013-01-09 17:24:00,
2013-01-09 11:39:00,50.7,48.0,30.35,North,355,8.0,10.0,89,0.00,,,0.15,weatherlink.com 1.10,2013-01-09 17:39:00,
2013-01-09 11:54:00,50.2,47.0,30.35,NNE,13,6.0,9.0,90,0.00,,,0.15,weatherlink.com 1.10,2013-01-09 17:54:00,
2013-01-09 12:09:00,50.6,48.0,30.34,NE,49,4.0,9.0,90,0.00,,,0.15,weatherlink.com 1.10,2013-01-09 18:09:00,
2013-01-09 12:24:00,51.6,48.0,30.33,NE,46,3.0,11.0,86,0.00,,,0.15,weatherlink.com 1.10,2013-01-09 18:24:00,
2013-01-09 12:39:00,52.0,48.0,30.33,NE,40,6.0,8.0,86,0.00,,,0.15,weatherlink.com 1.10,2013-01-09 18:39:00,
2013-01-09 12:54:00,52.4,47.0,30.32,North,5,5.0,11.0,83,0.00,,,0.15,weatherlink.com 1.10,2013-01-09 18:54:00,
2013-01-09 13:09:00,51.3,48.0,30.32,North,360,7.0,11.0,87,0.00,,,0.15,weatherlink.com 1.10,2013-01-09 19:09:00,
2013-01-09 13:24:00,51.4,48.0,30.32,NNE,13,6.0,9.0,87,0.00,,,0.15,weatherlink.com 1.10,2013-01-09 19:24:00,
2013-01-09 13:39:00,52.4,48.0,30.31,North,349,9.0,11.0,84,0.00,,,0.15,weatherlink.com 1.10,2013-01-09 19:39:00,
2013-01-09 13:54:00,53.5,48.0,30.30,ENE,64,4.0,12.0,81,0.00,,,0.15,weatherlink.com 1.10,2013-01-09 19:54:00,
2013-01-09 14:09:00,53.8,47.0,30.30,NE,49,10.0,11.0,79,0.00,,,0.15,weatherlink.com 1.10,2013-01-09 20:09:00,
2013-01-09 14:24:00,53.8,47.0,30.30,NE,49,7.0,12.0,78,0.00,,,0.15,weatherlink.com 1.10,2013-01-09 20:24:00,
2013-01-09 14:39:00,53.7,47.0,30.30,NE,46,5.0,12.0,78,0.00,,,0.15,weatherlink.com 1.10,2013-01-09 20:39:00,
2013-01-09 14:54:00,53.9,47.0,30.29,NE,53,8.0,10.0,77,0.00,,,0.15,weatherlink.com 1.10,2013-01-09 20:54:00,
2013-01-09 15:09:00,54.1,46.0,30.29,NE,44,6.0,12.0,75,0.00,,,0.15,weatherlink.com 1.10,2013-01-09 21:09:00,
2013-01-09 15:24:00,54.3,46.0,30.29,NE,38,7.0,13.0,73,0.00,,,0.15,weatherlink.com 1.10,2013-01-09 21:24:00,
2013-01-09 15:39:00,54.4,46.0,30.29,NNE,17,6.0,12.0,73,0.00,,,0.00,weatherlink.com 1.10,2013-01-09 21:39:00,
2013-01-09 15:54:00,54.4,46.0,30.29,North,5,5.0,11.0,72,0.00,,,0.00,weatherlink.com 1.10,2013-01-09 21:54:00,
2013-01-09 16:09:00,54.5,45.0,30.29,NE,44,8.0,10.0,71,0.00,,,0.00,weatherlink.com 1.10,2013-01-09 22:09:00,
2013-01-09 16:24:00,54.6,45.0,30.29,NE,46,6.0,9.0,69,0.00,,,0.00,weatherlink.com 1.10,2013-01-09 22:24:00,
2013-01-09 16:39:00,54.6,44.0,30.29,NE,50,5.0,10.0,68,0.00,,,0.00,weatherlink.com 1.10,2013-01-09 22:39:00,
2013-01-09 16:54:00,54.5,44.0,30.29,NE,43,8.0,13.0,67,0.00,,,0.00,weatherlink.com 1.10,2013-01-09 22:54:00,
2013-01-09 17:09:00,54.4,43.0,30.29,NNE,26,7.0,12.0,66,0.00,,,0.00,weatherlink.com 1.10,2013-01-09 23:09:00,
2013-01-09 17:25:00,54.3,43.0,30.28,NE,55,5.0,13.0,66,0.00,,,0.00,weatherlink.com 1.10,2013-01-09 23:25:00,
2013-01-09 17:40:00,54.1,42.0,30.28,ENE,60,11.0,14.0,65,0.00,,,0.00,weatherlink.com 1.10,2013-01-09 23:40:00,
2013-01-09 17:55:00,54.1,42.0,30.28,NE,54,7.0,13.0,64,0.00,,,0.00,weatherlink.com 1.10,2013-01-09 23:55:00,
2013-01-09 18:10:00,54.0,42.0,30.28,NE,49,5.0,11.0,64,0.00,,,0.00,weatherlink.com 1.10,2013-01-10 00:10:00,
2013-01-09 18:25:00,54.0,42.0,30.28,NNE,33,4.0,10.0,64,0.00,,,0.00,weatherlink.com 1.10,2013-01-10 00:25:00,
2013-01-09 18:40:00,53.9,42.0,30.28,NE,40,4.0,11.0,64,0.00,,,0.00,weatherlink.com 1.10,2013-01-10 00:40:00,
2013-01-09 18:55:00,53.8,42.0,30.28,NNE,30,6.0,14.0,64,0.00,,,0.00,weatherlink.com 1.10,2013-01-10 00:55:00,
2013-01-09 19:10:00,53.8,41.0,30.28,NE,54,7.0,11.0,63,0.00,,,0.00,weatherlink.com 1.10,2013-01-10 01:10:00,
2013-01-09 19:25:00,53.7,41.0,30.28,NNE,31,12.0,13.0,63,0.00,,,0.00,weatherlink.com 1.10,2013-01-10 01:25:00,
2013-01-09 19:40:00,53.5,41.0,30.28,NE,42,10.0,13.0,63,0.00,,,0.00,weatherlink.com 1.10,2013-01-10 01:40:00,
2013-01-09 19:55:00,53.3,41.0,30.27,NE,50,7.0,11.0,64,0.00,,,0.00,weatherlink.com 1.10,2013-01-10 01:55:00,
2013-01-09 20:10:00,53.2,41.0,30.27,NE,40,5.0,11.0,64,0.00,,,0.00,weatherlink.com 1.10,2013-01-10 02:10:00,
2013-01-09 20:25:00,52.9,41.0,30.27,ENE,65,4.0,10.0,65,0.00,,,0.00,weatherlink.com 1.10,2013-01-10 02:25:00,
2013-01-09 20:40:00,52.8,41.0,30.26,NE,51,9.0,11.0,65,0.00,,,0.00,weatherlink.com 1.10,2013-01-10 02:40:00,
2013-01-09 20:55:00,53.1,41.0,30.25,NE,40,9.0,11.0,64,0.00,,,0.00,weatherlink.com 1.10,2013-01-10 02:55:00,
2013-01-09 21:10:00,53.2,42.0,30.25,NE,47,4.0,10.0,65,0.00,,,0.00,weatherlink.com 1.10,2013-01-10 03:10:00,
2013-01-09 21:25:00,53.1,42.0,30.24,NE,52,4.0,10.0,65,0.00,,,0.00,weatherlink.com 1.10,2013-01-10 03:25:00,
2013-01-09 21:40:00,53.0,41.0,30.23,NE,46,4.0,9.0,65,0.00,,,0.00,weatherlink.com 1.10,2013-01-10 03:40:00,
2013-01-09 21:55:00,53.0,42.0,30.23,NE,48,5.0,9.0,66,0.00,,,0.00,weatherlink.com 1.10,2013-01-10 03:55:00,
2013-01-09 22:10:00,53.1,42.0,30.23,ENE,67,8.0,9.0,66,0.00,,,0.00,weatherlink.com 1.10,2013-01-10 04:10:00,
2013-01-09 22:25:00,53.4,43.0,30.22,NE,45,2.0,7.0,67,0.00,,,0.00,weatherlink.com 1.10,2013-01-10 04:25:00,
2013-01-09 22:40:00,53.9,43.0,30.23,ESE,118,2.0,8.0,66,0.00,,,0.00,weatherlink.com 1.10,2013-01-10 04:40:00,
2013-01-09 22:55:00,54.0,43.0,30.23,ESE,104,1.0,8.0,67,0.00,,,0.00,weatherlink.com 1.10,2013-01-10 04:55:00,
2013-01-09 23:10:00,53.8,43.0,30.23,ESE,111,2.0,7.0,68,0.00,,,0.00,weatherlink.com 1.10,2013-01-10 05:10:00,
2013-01-09 23:25:00,53.0,44.0,30.22,East,82,2.0,4.0,72,0.00,,,0.00,weatherlink.com 1.10,2013-01-10 05:25:00,
2013-01-09 23:55:00,52.1,45.0,30.20,ENE,59,4.0,7.0,76,0.00,,,0.00,weatherlink.com 1.10,2013-01-10 05:55:00,